Ankeny, IA

3:32 PM CST on December 06, 2019 (GMT -0600)
Ankeny Regional

Weather History for KIKV - November, 2019

Change the Weather History Date:

Thursday, November 14, 2019

  Actual Average (WUND) Record (WUND)
Temperature  
Mean Temperature 24 °F -  
Max Temperature 30 °F - - (-1)
Min Temperature 17 °F - - (-1)
Degree Days  
Heating Degree Days 42    
Moisture  
Dew Point 19 °F    
Average Humidity 81    
Maximum Humidity 100    
Minimum Humidity 64    
Precipitation  
Precipitation 0.00 in - - ()
Sea Level Pressure  
Sea Level Pressure 30.30 in    
Wind  
Wind Speed 6 mph ()    
Max Wind Speed 14 mph    
Max Gust Speed 18 mph    
Visibility 9.5 miles    
Events      
Averages and records for this station are not official NWS values.
T = Trace of Precipitation, MM = Missing Value Source: Averaged Metar Reports

Daily Weather History Graph

Daily Weather History Graph

Search for Another Location

Airport or City:

Astronomy

Nov. 14, 2019 Rise Set
Actual Time 7:01 AM CST 4:54 PM CST
Civil Twilight 6:32 AM CST 5:24 PM CST
Nautical Twilight 5:58 AM CST 5:58 PM CST
Astronomical Twilight 5:25 AM CST 6:31 PM CST
Moon 6:40 PM CST (11/14) 8:59 AM CST (11/14)
Length of Visible Light 10h 52m
Length of Day
9h 52m
Waning Gibbous, 95% of the Moon is Illuminated
Nov 14
Waning Gibbous
Nov 19
Last Quarter
Nov 26
New
Dec 4
First Quarter
Dec 11
Full

Hourly Weather History & Observations

Time (CST) Temp. Windchill Dew Point Humidity Pressure Visibility Wind Dir Wind Speed Gust Speed Precip Events Conditions
12:15 AM 30.2 °F 24.3 °F 26.6 °F 86% 30.13 in 10.0 mi NW 5.8 mph - N/A   Clear
12:35 AM 28.4 °F 21.2 °F 26.6 °F 93% 30.14 in 10.0 mi NNW 6.9 mph - N/A   Clear
12:55 AM 28.4 °F 20.4 °F 24.8 °F 86% 30.14 in 10.0 mi NNW 8.1 mph - N/A   Clear
1:35 AM 28.4 °F 19.7 °F 23.0 °F 80% 30.17 in 10.0 mi North 9.2 mph 16.1 mph N/A   Mostly Cloudy
1:55 AM 26.6 °F 16.8 °F 23.0 °F 86% 30.17 in 10.0 mi North 10.4 mph - N/A   Overcast
2:15 AM 26.6 °F 17.5 °F 21.2 °F 80% 30.18 in 10.0 mi NNW 9.2 mph - N/A   Mostly Cloudy
2:35 AM 24.8 °F 16.1 °F 21.2 °F 86% 30.18 in 10.0 mi NNW 8.1 mph - N/A   Scattered Clouds
2:55 AM 24.8 °F 15.3 °F 21.2 °F 86% 30.18 in 10.0 mi NNW 9.2 mph - N/A   Mostly Cloudy
3:35 AM 23.0 °F - 19.4 °F 86% 30.18 in 10.0 mi Calm Calm - N/A   Mostly Cloudy
3:55 AM 21.2 °F - 19.4 °F 93% 30.19 in 10.0 mi Calm Calm - N/A   Mostly Cloudy
4:15 AM 21.2 °F 16.4 °F 17.6 °F 86% 30.19 in 10.0 mi NNW 3.5 mph - N/A   Mostly Cloudy
4:35 AM 23.0 °F 14.7 °F 19.4 °F 86% 30.20 in 10.0 mi NNW 6.9 mph - N/A   Partly Cloudy
4:55 AM 23.0 °F 12.4 °F 17.6 °F 80% 30.21 in 10.0 mi NNW 10.4 mph - N/A   Scattered Clouds
5:15 AM 23.0 °F 13.9 °F 17.6 °F 80% 30.23 in 10.0 mi NNW 8.1 mph - N/A   Mostly Cloudy
5:35 AM 23.0 °F 13.1 °F 17.6 °F 80% 30.24 in 10.0 mi NNW 9.2 mph - N/A   Overcast
6:15 AM 23.0 °F 15.8 °F 19.4 °F 86% 30.26 in 10.0 mi NNW 5.8 mph - N/A   Overcast
6:35 AM 24.8 °F 17.9 °F 19.4 °F 80% 30.26 in 10.0 mi NNW 5.8 mph - N/A   Overcast
6:55 AM 24.8 °F 17.9 °F 19.4 °F 80% 30.27 in 10.0 mi NW 5.8 mph - N/A   Overcast
7:15 AM 24.8 °F 16.1 °F 19.4 °F 80% 30.29 in 10.0 mi NNW 8.1 mph - N/A   Overcast
7:35 AM 24.8 °F 15.3 °F 19.4 °F 80% 30.29 in 10.0 mi NNW 9.2 mph - N/A   Overcast
7:55 AM 24.8 °F 16.1 °F 17.6 °F 74% 30.30 in 10.0 mi NNW 8.1 mph 15.0 mph N/A   Overcast
8:15 AM 24.8 °F 16.9 °F 17.6 °F 74% 30.31 in 10.0 mi NNW 6.9 mph - N/A   Overcast
8:55 AM 24.8 °F 13.4 °F 17.6 °F 74% 30.32 in 10.0 mi NNW 12.7 mph - N/A   Overcast
9:15 AM 24.8 °F 14.0 °F 17.6 °F 74% 30.33 in 10.0 mi NNW 11.5 mph 18.4 mph N/A   Overcast
9:35 AM 23.0 °F 11.7 °F 17.6 °F 80% 30.33 in 10.0 mi NNW 11.5 mph - N/A   Overcast
10:15 AM 24.8 °F 13.4 °F 17.6 °F 74% 30.34 in 10.0 mi NNW 12.7 mph - N/A   Scattered Clouds
10:35 AM 24.8 °F 12.9 °F 17.6 °F 74% 30.35 in 10.0 mi NW 13.8 mph - N/A   Partly Cloudy
10:55 AM 24.8 °F 14.0 °F 17.6 °F 74% 30.35 in 10.0 mi NW 11.5 mph - N/A   Partly Cloudy
11:15 AM 24.8 °F 16.1 °F 17.6 °F 74% 30.35 in 10.0 mi NNW 8.1 mph - N/A   Scattered Clouds
11:35 AM 26.6 °F 20.0 °F 17.6 °F 69% 30.34 in 10.0 mi NW 5.8 mph - N/A   Partly Cloudy
11:55 AM 26.6 °F 18.2 °F 17.6 °F 69% 30.33 in 10.0 mi NW 8.1 mph - N/A   Clear
12:15 PM 26.6 °F 18.2 °F 17.6 °F 69% 30.33 in 10.0 mi NW 8.1 mph - N/A   Clear
12:35 PM 28.4 °F 20.4 °F 17.6 °F 64% 30.34 in 10.0 mi NW 8.1 mph - N/A   Clear
12:55 PM 28.4 °F 19.7 °F 19.4 °F 69% 30.33 in 10.0 mi West 9.2 mph - N/A   Clear
1:15 PM 28.4 °F 19.7 °F 19.4 °F 69% 30.34 in 10.0 mi West 9.2 mph - N/A   Clear
1:35 PM 28.4 °F 19.1 °F 19.4 °F 69% 30.33 in 10.0 mi West 10.4 mph - N/A   Clear
1:55 PM 28.4 °F 20.4 °F 17.6 °F 64% 30.33 in 10.0 mi West 8.1 mph - N/A   Clear
2:15 PM 28.4 °F 20.4 °F 19.4 °F 69% 30.32 in 10.0 mi WNW 8.1 mph - N/A   Clear
2:35 PM 28.4 °F 21.2 °F 19.4 °F 69% 30.33 in 10.0 mi WNW 6.9 mph - N/A   Clear
2:55 PM 28.4 °F 19.1 °F 19.4 °F 69% 30.33 in 10.0 mi WNW 10.4 mph - N/A   Clear
3:15 PM 28.4 °F 19.1 °F 19.4 °F 69% 30.34 in 10.0 mi WNW 10.4 mph - N/A   Clear
3:35 PM 28.4 °F 19.7 °F 19.4 °F 69% 30.34 in 10.0 mi WNW 9.2 mph - N/A   Clear
4:15 PM 28.4 °F 20.4 °F 19.4 °F 69% 30.34 in 10.0 mi West 8.1 mph - N/A   Clear
4:35 PM 28.4 °F 21.2 °F 19.4 °F 69% 30.33 in 10.0 mi West 6.9 mph - N/A   Clear
4:55 PM 26.6 °F 21.2 °F 19.4 °F 74% 30.34 in 10.0 mi West 4.6 mph - N/A   Clear
5:15 PM 26.6 °F 22.6 °F 19.4 °F 74% 30.33 in 10.0 mi West 3.5 mph - N/A   Clear
5:35 PM 26.6 °F - 19.4 °F 74% 30.34 in 10.0 mi Calm Calm - N/A   Clear
5:55 PM 26.6 °F - 19.4 °F 74% 30.34 in 10.0 mi Calm Calm - N/A   Clear
6:35 PM 21.2 °F - 19.4 °F 93% 30.34 in 10.0 mi Calm Calm - N/A   Clear
6:55 PM 21.2 °F - 19.4 °F 93% 30.34 in 10.0 mi Calm Calm - N/A   Clear
7:15 PM 21.2 °F - 19.4 °F 93% 30.34 in 9.0 mi Calm Calm - N/A   Clear
7:35 PM 19.4 °F - 17.6 °F 93% 30.34 in 9.0 mi Calm Calm - N/A   Clear
7:55 PM 19.4 °F - 17.6 °F 93% 30.34 in 9.0 mi Calm Calm - N/A   Clear
8:15 PM 19.4 °F - 17.6 °F 93% 30.34 in 8.0 mi Calm Calm - N/A   Clear
8:35 PM 19.4 °F 14.3 °F 17.6 °F 93% 30.34 in 7.0 mi South 3.5 mph - N/A   Clear
8:55 PM 19.4 °F - 17.6 °F 93% 30.34 in 8.0 mi Calm Calm - N/A   Clear
9:15 PM 19.4 °F - 17.6 °F 93% 30.34 in 7.0 mi Calm Calm - N/A   Clear
9:35 PM 19.4 °F - 17.6 °F 93% 30.35 in 7.0 mi Calm Calm - N/A   Clear
9:55 PM 17.6 °F - 17.6 °F 100% 30.35 in 6.0 mi Calm Calm - N/A   Clear
10:15 PM 19.4 °F - 17.6 °F 93% 30.35 in 8.0 mi Calm Calm - N/A   Clear
10:35 PM 17.6 °F - 15.8 °F 93% 30.34 in 6.0 mi Calm Calm - N/A   Clear
10:55 PM 19.4 °F - 17.6 °F 93% 30.34 in 9.0 mi Calm Calm - N/A   Clear
11:15 PM 19.4 °F - 17.6 °F 93% 30.34 in 8.0 mi Calm Calm - N/A   Clear
11:35 PM 19.4 °F 14.3 °F 17.6 °F 93% 30.34 in - SSE 3.5 mph - N/A   Unknown
11:55 PM 19.4 °F - 17.6 °F 93% 30.34 in 9.0 mi Calm Calm - N/A   Clear